Weather History for KBWD - May, 2014

Change the Weather History Date:

Thursday, May 29, 2014

  Actual Average (KABI) Record (KABI)
Temperature  
Mean Temperature 72 °F 76 °F  
Max Temperature 84 °F 87 °F 103 °F (1985)
Min Temperature 60 °F 65 °F 44 °F (1947)
Degree Days  
Heating Degree Days 0 0  
Month to date heating degree days 13  
Since 1 July heating degree days 2555  
Cooling Degree Days 7 11  
Month to date cooling degree days 242  
Year to date cooling degree days 375  
Growing Degree Days 22 (Base 50)    
Moisture  
Dew Point 62 °F    
Average Humidity 71    
Maximum Humidity 100    
Minimum Humidity 42    
Precipitation  
Precipitation 0.00 in 0.12 in 1.45 in (1967)
Month to date precipitation 2.92  
Year to date precipitation 8.68  
Sea Level Pressure  
Sea Level Pressure 29.93 in    
Wind  
Wind Speed 2 mph (NE)    
Max Wind Speed 10 mph    
Max Gust Speed -    
Visibility 9 miles    
Events      
T = Trace of Precipitation, MM = Missing Value Source: NWS Daily Summary

Daily Weather History Graph

Daily Weather History Graph

Search for Another Location

Airport or City:

Trip Planner

Search our weather history database for the weather conditions in past years. The results will help you decide how hot, cold, wet, or windy it might be!

Date:

Astronomy

May. 29, 2014 Rise Set
Actual Time 6:31 AM CDT 8:34 PM CDT
Civil Twilight 6:04 AM CDT 9:02 PM CDT
Nautical Twilight 5:30 AM CDT 9:36 PM CDT
Astronomical Twilight 4:54 AM CDT 10:12 PM CDT
Moon 7:23 AM CDT (5/29) 9:29 PM CDT (5/29)
Length of Visible Light 14h 58m
Length of Day
14h 02m
New Moon, 1% of the Moon is Illuminated
May 29
New Moon
Jun 5
First Quarter
Jun 12
Full
Jun 19
Last Quarter
Jun 27
New

Hourly Weather History & Observations

Time (CDT) Temp. Heat Index Dew Point Humidity Pressure Visibility Wind Dir Wind Speed Gust Speed Precip Events Conditions
12:15 AM 66.2 °F - 64.4 °F 94% 29.95 in 10.0 mi Calm Calm - N/A   Overcast
12:35 AM 66.2 °F - 64.4 °F 94% 29.95 in 10.0 mi Calm Calm - N/A   Mostly Cloudy
12:55 AM 66.2 °F - 64.4 °F 94% 29.95 in 10.0 mi Calm Calm - N/A   Mostly Cloudy
1:15 AM 66.2 °F - 64.4 °F 94% 29.94 in 10.0 mi Calm Calm - N/A   Mostly Cloudy
1:35 AM 66.2 °F - 64.4 °F 94% 29.94 in 10.0 mi Calm Calm - N/A   Scattered Clouds
1:55 AM 64.4 °F - 64.4 °F 100% 29.93 in 10.0 mi Calm Calm - N/A   Partly Cloudy
2:15 AM 66.2 °F - 62.6 °F 88% 29.93 in 10.0 mi Calm Calm - N/A   Clear
2:35 AM 64.4 °F - 62.6 °F 94% 29.93 in 10.0 mi Calm Calm - N/A   Clear
2:55 AM 64.4 °F - 62.6 °F 94% 29.93 in 10.0 mi Calm Calm - N/A   Partly Cloudy
3:15 AM 62.6 °F - 62.6 °F 100% 29.93 in 10.0 mi Calm Calm - N/A   Partly Cloudy
3:35 AM 64.4 °F - 62.6 °F 94% 29.93 in 10.0 mi Calm Calm - N/A   Mostly Cloudy
4:15 AM 62.6 °F - 62.6 °F 100% 29.93 in 9.0 mi Calm Calm - N/A   Overcast
4:35 AM 62.6 °F - 62.6 °F 100% 29.93 in 9.0 mi Calm Calm - N/A   Overcast
4:55 AM 62.6 °F - 62.6 °F 100% 29.94 in 8.0 mi Calm Calm - N/A   Overcast
5:15 AM 62.6 °F - 62.6 °F 100% 29.94 in 10.0 mi North - - N/A   Mostly Cloudy
5:35 AM 60.8 °F - 60.8 °F 100% 29.94 in 8.0 mi North - - N/A   Mostly Cloudy
5:55 AM 60.8 °F - 60.8 °F 100% 29.94 in 9.0 mi Calm Calm - N/A   Mostly Cloudy
6:15 AM 62.6 °F - 62.6 °F 100% 29.94 in 9.0 mi Calm Calm - N/A   Mostly Cloudy
6:35 AM 62.6 °F - 62.6 °F 100% 29.95 in 8.0 mi Calm Calm - N/A   Partly Cloudy
6:55 AM 60.8 °F - 60.8 °F 100% 29.95 in 3.0 mi Calm Calm - N/A   Clear
7:15 AM 62.6 °F - 62.6 °F 100% 29.95 in 3.0 mi Calm Calm - N/A   Clear
7:55 AM 66.2 °F - 64.4 °F 94% 29.96 in 2.0 mi Calm Calm - N/A   Clear
8:15 AM 68.0 °F - 64.4 °F 88% 29.97 in 1.2 mi Calm Calm - N/A   Clear
8:35 AM 69.8 °F - 64.4 °F 83% 29.97 in 4.0 mi Calm Calm - N/A   Haze
8:55 AM 71.6 °F - 64.4 °F 78% 29.97 in 3.0 mi Calm Calm - N/A   Haze
9:15 AM 73.4 °F - 64.4 °F 73% 29.97 in 2.5 mi Calm Calm - N/A   Haze
9:55 AM 75.2 °F - 62.6 °F 65% 29.97 in 7.0 mi NNW 4.6 mph - N/A   Clear
10:15 AM 77.0 °F - 62.6 °F 61% 29.97 in 10.0 mi NW 4.6 mph - N/A   Partly Cloudy
10:35 AM 77.0 °F - 62.6 °F 61% 29.97 in 10.0 mi North 4.6 mph - N/A   Scattered Clouds
10:55 AM 78.8 °F - 62.6 °F 57% 29.97 in 10.0 mi North 6.9 mph - N/A   Partly Cloudy
11:15 AM 78.8 °F - 60.8 °F 54% 29.97 in 9.0 mi North 5.8 mph - N/A   Scattered Clouds
11:35 AM 80.6 °F 81.5 °F 60.8 °F 51% 29.97 in 9.0 mi North 6.9 mph - N/A   Scattered Clouds
11:55 AM 80.6 °F 81.1 °F 59.0 °F 48% 29.97 in 10.0 mi NW 6.9 mph - N/A   Scattered Clouds
12:15 PM 80.6 °F 81.1 °F 59.0 °F 48% 29.97 in 10.0 mi NNE 10.4 mph - N/A   Partly Cloudy
12:35 PM 82.4 °F 82.9 °F 60.8 °F 48% 29.96 in 10.0 mi North 8.1 mph - N/A   Partly Cloudy
1:15 PM 82.4 °F 82.9 °F 60.8 °F 48% 29.95 in 10.0 mi East 6.9 mph - N/A   Scattered Clouds
1:35 PM 82.4 °F 82.5 °F 59.0 °F 45% 29.95 in 10.0 mi NNE 9.2 mph - N/A   Mostly Cloudy
1:55 PM 82.4 °F 82.9 °F 60.8 °F 48% 29.95 in 10.0 mi North 6.9 mph - N/A   Mostly Cloudy
2:15 PM 82.4 °F 82.9 °F 60.8 °F 48% 29.94 in 10.0 mi NE 5.8 mph - N/A   Scattered Clouds
2:35 PM 82.4 °F 82.9 °F 60.8 °F 48% 29.93 in 10.0 mi North 6.9 mph - N/A   Scattered Clouds
2:55 PM 82.4 °F 82.9 °F 60.8 °F 48% 29.93 in 10.0 mi ENE 5.8 mph - N/A   Scattered Clouds
3:15 PM 82.4 °F 82.5 °F 59.0 °F 45% 29.92 in 10.0 mi NNW 9.2 mph - N/A   Scattered Clouds
3:35 PM 84.2 °F 83.8 °F 59.0 °F 42% 29.92 in 10.0 mi NNE 8.1 mph - N/A   Partly Cloudy
3:55 PM 84.2 °F 84.4 °F 60.8 °F 45% 29.91 in 10.0 mi ENE 6.9 mph - N/A   Scattered Clouds
4:15 PM 84.2 °F 84.4 °F 60.8 °F 45% 29.90 in 10.0 mi ENE 9.2 mph - N/A   Scattered Clouds
4:35 PM 84.2 °F 83.8 °F 59.0 °F 42% 29.89 in 10.0 mi NE 5.8 mph - N/A   Scattered Clouds
4:55 PM 84.2 °F 84.4 °F 60.8 °F 45% 29.89 in 10.0 mi NE 9.2 mph - N/A   Partly Cloudy
5:15 PM 84.2 °F 84.4 °F 60.8 °F 45% 29.88 in 10.0 mi ENE 9.2 mph - N/A   Partly Cloudy
5:35 PM 84.2 °F 84.4 °F 60.8 °F 45% 29.88 in 10.0 mi NE 5.8 mph - N/A   Partly Cloudy
5:55 PM 84.2 °F 84.4 °F 60.8 °F 45% 29.88 in 10.0 mi ENE 10.4 mph - N/A   Clear
6:15 PM 84.2 °F 83.8 °F 59.0 °F 42% 29.87 in 8.0 mi ENE 9.2 mph - N/A   Clear
6:35 PM 84.2 °F 83.8 °F 59.0 °F 42% 29.88 in 10.0 mi NE 6.9 mph - N/A   Partly Cloudy
6:55 PM 84.2 °F 83.8 °F 59.0 °F 42% 29.87 in 5.0 mi NNE 4.6 mph - N/A   Haze
7:15 PM 84.2 °F 83.8 °F 59.0 °F 42% 29.87 in 9.0 mi ENE 6.9 mph - N/A   Clear
7:35 PM 82.4 °F 82.9 °F 60.8 °F 48% 29.88 in 10.0 mi East 3.5 mph - N/A   Clear
7:55 PM 82.4 °F 83.4 °F 62.6 °F 51% 29.88 in 10.0 mi ESE 5.8 mph - N/A   Clear
8:15 PM 80.6 °F 82.3 °F 64.4 °F 58% 29.88 in 10.0 mi ESE 3.5 mph - N/A   Clear
8:35 PM 77.0 °F - 66.2 °F 69% 29.89 in 10.0 mi Calm Calm - N/A   Clear
8:55 PM 77.0 °F - 64.4 °F 65% 29.89 in 10.0 mi Calm Calm - N/A   Clear
9:15 PM 75.2 °F - 64.4 °F 69% 29.89 in 10.0 mi East 3.5 mph - N/A   Mostly Cloudy
9:35 PM 73.4 °F - 66.2 °F 78% 29.90 in 10.0 mi Calm Calm - N/A   Mostly Cloudy
9:55 PM 73.4 °F - 66.2 °F 78% 29.90 in 10.0 mi East 3.5 mph - N/A   Mostly Cloudy
10:15 PM 71.6 °F - 66.2 °F 83% 29.91 in 10.0 mi Calm Calm - N/A   Scattered Clouds
10:35 PM 73.4 °F - 66.2 °F 78% 29.91 in 10.0 mi Calm Calm - N/A   Scattered Clouds
11:15 PM 69.8 °F - 66.2 °F 88% 29.92 in 10.0 mi Calm Calm - N/A   Mostly Cloudy
11:35 PM 69.8 °F - 66.2 °F 88% 29.92 in 10.0 mi Calm Calm - N/A   Mostly Cloudy
11:55 PM 68.0 °F - 66.2 °F 94% 29.92 in 10.0 mi Calm Calm - N/A   Mostly Cloudy